Simultaneous Nadir Overpasses (SNOs) Predictions

Prediction of SNOs between GOES-16 and LANDSAT-8 Satellite Orbit:

Table of predicted SNOs for the next 14.0 days since TLE Epoch: 2/11/2023
Index Date Time (GOES-16) GOES-16 Lat,Lon LANDSAT-8 Lat,Lon Distance(km) Time Diff (sec)
1 02/11/2023 15:15:33 0.03, -75.20 0.08, -75.41 24.10 80
2 02/13/2023 15:00:40 0.03, -75.21 -0.59, -72.46 313.63 80
3 02/14/2023 03:24:43 -0.03, -75.20 -0.54, -77.64 277.83 80
4 02/16/2023 03:09:49 -0.03, -75.21 0.10, -74.68 60.14 80
5 02/18/2023 02:57:34 -0.03, -75.22 0.71, -71.71 398.80 80
6 02/18/2023 15:18:49 0.03, -75.24 0.37, -76.87 185.26 80
7 02/20/2023 15:09:14 0.03, -75.26 -0.29, -73.90 154.63 80
8 02/21/2023 03:30:37 -0.03, -75.25 -0.81, -79.09 436.02 80
9 02/22/2023 14:56:58 0.03, -75.29 -0.91, -70.93 495.73 80
10 02/23/2023 03:18:21 -0.03, -75.28 -0.18, -76.12 94.64 80
